TITAN 34D TRANSTAGE DEB, 23038

Orbit data source: Space-Track

TITAN 34D TRANSTAGE DEB, 23038 is space debris in HEO originally from a launch on Fri, 02 Sep 1988 UTC launched from the Air Force Eastern Test Range (AFETR). Debris objects in space refer to the collection of defunct objects orbiting the Earth. Examples of debris include non-operational satellites, rocket bodies, and fragments generated from explosions, collisions, or faulty payload assembly.

Loading next visibility...
Identifier
23038, 1988-077H
Orbit
HEO
Country
Flag of USUS
Related business
Manufacturer
Unknown
Mission
Spacecraft
Bus & Motor
Unknown
Mass
Unknown
Launch date (UTC)
1988-09-02 (38 years ago)
Launch vehicle
Unknown
Launch site
Air Force Eastern Test Range (AFETR)
Object type
Payload
Rocket body
Debris
Shape & HBR
Unknown shape, 0.4 m
Radar Cross Section
Medium (>0.1 m² and <1 m²)

Expand to show TLE details & history
Last TLE update: 2 days ago

TLE from 2 days ago
0 TITAN 34D TRANSTAGE DEB
1 23038U 88077H   26171.15820470  .00009794  00000-0  65573-2 0  9997
2 23038  26.9941  16.4376 6816579  92.5398 340.5491  2.84406059 66729
Epoch: 2026-06-20T03:47Z
TLE epoch observation values (Epoch: 2026-06-20T03:47:48.886Z)
Latitude
-0.00021°
Longitude
51.12955°
Altitude
5,200.884 km
Speed
7.064 km/s
True Right ascension
01h 05m 50s
True Declination
0° 00' 01"
Sunlit
Object was in daylight at epoch
Visualization orbit readout
Latitude
Unknown
Longitude
Unknown
Altitude
Unknown
Speed
Unknown
Apparent Right ascension
Unknown
Apparent Declination
Unknown
Sunlit
N/A
Visualization observer readout
Local Sidereal Time
00:39:32
Azimuth
Unknown
Elevation
Unknown
Doppler factor
Unknown
Orbital elements
Apogee altitude
29,015.354 km
Perigee altitude
321.94 km
Semi-major axis
21,046.784 km
Eccentricity
0.68166
Inclination
26.9941°
RAAN
16.4376°
Arg. of periapsis
92.5398°
True anomaly
267.52112°
Mean anomaly
340.5491°
Eccentric anomaly
311.13233°
Mean motion
0.71083 °/min
Orbital period
506.45 mins
BSTAR
0.0065573
Loading maneuver chart data...
Computing Atmospheric mass density...

Documentation

Showing up to 5 results
|